Weather History for Sable Island, NS

Change the Weather History Date:

Monday, November 7, 2011

  Actual Average Record
Temperature  
Mean Temperature 50 °F -  
Max Temperature 53 °F 48 °F 63 °F (2014)
Min Temperature 47 °F 40 °F 26 °F (2006)
Degree Days  
Heating Degree Days 15    
Moisture  
Dew Point 43 °F    
Average Humidity 77    
Maximum Humidity 87    
Minimum Humidity 66    
Precipitation  
Precipitation 0.02 in - - ()
Sea Level Pressure  
Sea Level Pressure 30.20 in    
Wind  
Wind Speed 16 mph ()    
Max Wind Speed 25 mph    
Max Gust Speed 34 mph    
Visibility 8.2 miles    
Events      
Averages and records for this station are not official NWS values.
T = Trace of Precipitation, MM = Missing Value Source: Averaged Metar Reports

Daily Weather History Graph

Daily Weather History Graph

Search for Another Location

Airport:

Trip Planner

Search our weather history database for the weather conditions in past years. The results will help you decide how hot, cold, wet, or windy it might be!

Date:

Astronomy

Nov. 07, 2011 Rise Set
Actual Time 6:43 AM AST 4:42 PM AST
Civil Twilight 6:13 AM AST 5:13 PM AST
Nautical Twilight 5:38 AM AST 5:47 PM AST
Astronomical Twilight 5:05 AM AST 6:21 PM AST
Moon 2:55 PM AST (11/7) 3:37 AM AST (11/7)
Length of Visible Light 11h 00m
Length of Day
9h 59m
Waxing Gibbous, 91% of the Moon is Illuminated
Nov 7
Waxing Gibbous
Nov 10
Full
Nov 18
Last Quarter
Nov 25
New
Dec 2
First Quarter

Hourly Weather History & Observations

Time (AST) Temp. Dew Point Humidity Pressure Visibility Wind Dir Wind Speed Gust Speed Precip Events Conditions
12:00 AM 48.2 °F 41.0 °F 76% 30.22 in 8.0 mi West 23.0 mph 34.5 mph N/A   Clear
1:00 AM 48.2 °F 41.0 °F 76% 30.22 in 7.0 mi West 25.3 mph 32.2 mph N/A   Clear
2:00 AM 48 °F 40 °F 66% 30.22 in 7 mi West 23.0 mph - -  
2:00 AM 48.2 °F 41.0 °F 76% 30.22 in 7.0 mi West 24.2 mph 29.9 mph N/A   Clear
3:00 AM 48.2 °F 41.0 °F 76% 30.21 in 7.0 mi West 21.9 mph - N/A   Clear
4:00 AM 48.2 °F 42.8 °F 82% 30.21 in 6.0 mi West 17.3 mph 24.2 mph N/A   Clear
5:00 AM 48 °F 42 °F 75% 30.22 in 6 mi West 16.1 mph - -  
5:00 AM 48.2 °F 42.8 °F 82% 30.22 in 6.0 mi West 17.3 mph 23.0 mph N/A   Clear
6:00 AM 48.2 °F 42.8 °F 82% 30.23 in 6.0 mi West 15.0 mph - N/A   Clear
7:00 AM 48.2 °F 42.8 °F 82% 30.23 in 6.0 mi West 15.0 mph - N/A   Clear
8:00 AM 49 °F 44 °F 76% 30.24 in 7 mi West 11.5 mph - -  
8:00 AM 48.2 °F 44.6 °F 87% 30.24 in 7.0 mi West 11.5 mph - N/A   Clear
9:00 AM 50.0 °F 44.6 °F 82% 30.24 in 8.0 mi West 13.8 mph - N/A   Clear
10:00 AM 51.8 °F 44.6 °F 76% 30.25 in 9.0 mi West 15.0 mph - N/A   Partly Cloudy
11:00 AM 52 °F 45 °F 69% 30.24 in 9 mi West 13.8 mph - -  
11:00 AM 51.8 °F 44.6 °F 76% 30.24 in 9.0 mi West 15.0 mph - N/A   Partly Cloudy
11:40 AM 51.8 °F 44.6 °F 76% 30.22 in 9.0 mi West 13.8 mph - N/A   Mostly Cloudy
12:03 PM 51.8 °F 44.6 °F 76% 30.22 in 9.0 mi West 12.7 mph 18.4 mph N/A   Scattered Clouds
12:12 PM 53.6 °F 44.6 °F 72% 30.21 in 9.0 mi West 13.8 mph 19.6 mph N/A   Mostly Cloudy
12:47 PM 53.6 °F 44.6 °F 72% 30.20 in 9.0 mi West 11.5 mph 17.3 mph N/A   Partly Cloudy
1:00 PM 51.8 °F 44.6 °F 76% 30.20 in 9.0 mi West 11.5 mph - N/A   Partly Cloudy
1:18 PM 51.8 °F 44.6 °F 76% 30.19 in 9.0 mi West 11.5 mph 19.6 mph N/A   Mostly Cloudy
1:52 PM 51.8 °F 44.6 °F 76% 30.19 in 9.0 mi WSW 16.1 mph - N/A   Scattered Clouds
1:58 PM 51.8 °F 44.6 °F 76% 30.18 in 9.0 mi WSW 17.3 mph - N/A   Mostly Cloudy
2:00 PM 52 °F 44 °F 66% 30.18 in 9 mi WSW 16.1 mph - -  
2:20 PM 51.8 °F 44.6 °F 76% 30.18 in 9.0 mi North - - N/A   Partly Cloudy
2:34 PM 51.8 °F 44.6 °F 76% 30.18 in 9.0 mi North - - N/A   Mostly Cloudy
3:00 PM 50.0 °F 42.8 °F 76% 30.18 in 9.0 mi North - - N/A   Mostly Cloudy
4:00 PM 50.0 °F 42.8 °F 76% 30.18 in 9.0 mi North - - N/A   Mostly Cloudy
5:00 PM 49 °F 43 °F 74% 30.18 in 9 mi West 13.8 mph - -   Overcast
5:00 PM 50.0 °F 42.8 °F 76% 30.18 in 9.0 mi West 15.0 mph 20.7 mph N/A   Overcast
6:00 PM 48.2 °F 42.8 °F 82% 30.17 in 9.0 mi WSW 15.0 mph 20.7 mph N/A   Mostly Cloudy
6:16 PM 48.2 °F 42.8 °F 82% 30.16 in 9.0 mi WSW 16.1 mph 21.9 mph N/A   Partly Cloudy
6:32 PM 48.2 °F 42.8 °F 82% 30.15 in 9.0 mi WSW 13.8 mph 19.6 mph N/A   Mostly Cloudy
7:00 PM 48.2 °F 42.8 °F 82% 30.15 in 9.0 mi WSW 17.3 mph 23.0 mph N/A   Mostly Cloudy
8:00 PM 48 °F 42 °F 75% 30.15 in 9 mi WSW 18.4 mph - -   Overcast
8:00 PM 48.2 °F 42.8 °F 82% 30.15 in 9.0 mi WSW 19.6 mph - N/A   Overcast
9:00 PM 50.0 °F 42.8 °F 76% 30.14 in 9.0 mi WSW 21.9 mph 27.6 mph N/A   Overcast
11:00 PM 50 °F 43 °F 71% 30.11 in 7 mi WSW 21.9 mph - -   Overcast
11:00 PM 50.0 °F 42.8 °F 76% 30.11 in 8.0 mi WSW 21.9 mph 27.6 mph N/A   Overcast